Portada
METAR-TAF:

Aeropuertos :

Chichén Itzá, México

Aeropuerto Internacional de Kaua

latitud: 20-38-30N, longitud: 088-26-58W, altitud: 31 m

Observación

El informe se hizo hace 8 horas y 21 minutos, a las 22:43 UTC
Viento 10 kt del este
Temperatura 35°C
Humedad 47%
Presión 1009 hPa
Visibilidad: 12.9 km
Cielo nuboso a una altura de 2000 ft

METAR: MMCT 272243Z 09010KT 8SM BKN020 35/22 A2981 RMK 8/400 MSGTX MMMD

Hora: 02:04 (07:04 UTC)


TAF: falta

METAR-TAF

Observaciones y pronósticos meteorológicos de más de 4000 aeropuertos (mensajes METAR y TAF).

Los puntos amarillos y rojos representan las estaciones disponibles.

Ponga el ratón en el punto deseado para ver el nombre de la estación.

Haga clic para ver las observaciones y los pronósticos meteorológicos.

Para cambiar el mapa : haga clic en los botones verdes con una cruz de color negro para hacer un zoom, en el botón verde con un guión para alejar o en las flechas verdes para mapas adyacentes.


METAR-TAF: